Location: Standeford and Andreas Observatories
(44.1397°N, 93.9969°W)
Time: 09:17:42
(UTC-05:00)

Cosmos 1500 Rocket - Visible Passes

Search period start: 05 September 2015 00:00
Search period end: 15 September 2015 00:00
Orbit: 605 x 632 km, 82.5° (Epoch: 04 September)

Date Brightness Start Highest point End Pass type
(mag) Time Alt. Az. Time Alt. Az. Time Alt. Az.
05 Sep 4.3 22:20:49 10° N 22:24:01 46° NNE 22:24:01 46° NNE visible
06 Sep 5.5 21:01:52 10° NE 21:03:52 13° ENE 21:03:59 13° ENE visible
06 Sep 4.6 22:37:56 10° NNW 22:41:08 44° NW 22:41:08 44° NW visible
07 Sep 4.9 21:17:52 10° NNE 21:21:06 22° ENE 21:21:06 22° ENE visible
07 Sep 5.3 22:55:18 10° NNW 22:58:15 30° WNW 22:58:15 30° WNW visible
08 Sep 4.2 21:34:28 10° N 21:38:15 38° ENE 21:38:15 38° ENE visible
08 Sep 6.0 23:13:04 10° NW 23:15:24 18° WNW 23:15:24 18° WNW visible
09 Sep 3.5 21:51:23 10° N 21:55:25 68° NE 21:55:25 68° NE visible
09 Sep 6.5 23:32:12 10° WNW 23:32:34 10° WNW 23:32:34 10° WNW visible
10 Sep 5.4 20:32:22 10° NE 20:34:26 13° ENE 20:35:28 13° E visible
10 Sep 4.0 22:08:30 10° NNW 22:12:37 59° WNW 22:12:37 59° WNW visible
11 Sep 4.8 20:48:24 10° NNE 20:51:51 23° ENE 20:52:41 22° E visible
11 Sep 5.0 22:25:54 10° NNW 22:29:50 32° W 22:29:51 32° W visible
12 Sep 4.0 21:05:01 10° N 21:09:09 40° ENE 21:09:57 36° ESE visible
12 Sep 5.9 22:43:41 10° NW 22:46:44 18° W 22:47:06 18° W visible
13 Sep 3.4 21:21:57 10° N 21:26:19 75° E 21:27:15 53° SSE visible
14 Sep 5.4 20:02:52 10° NE 20:05:00 14° ENE 20:07:20 10° E visible
14 Sep 4.0 21:39:05 10° NNW 21:43:23 59° W 21:44:36 41° SSW visible
